Weather reports worldwide

Advertisment
Bradford, United Kingdom (99171): temperature & dewpoint: 18.01.2020 01:00:00 - 24.01.2020 01:00:00 (GMT)Bradford, United Kingdom (99171): temperature -20cm & temperature -100cm: 18.01.2020 01:00:00 - 24.01.2020 01:00:00 (GMT)Bradford, United Kingdom (99171): precipitation: 18.01.2020 01:00:00 - 24.01.2020 01:00:00 (GMT)
Date & Time tt [°C] td [°C] tt -20cm [°C] tt -100cm [°C] rr [mm]
24.01.2020 01:00:00 7,0 5,0 - - 0,0
24.01.2020 00:00:00 6,9 4,7 - - 0,0
23.01.2020 23:00:00 6,6 4,8 - - 0,0
23.01.2020 22:00:00 6,8 4,8 - - 0,0
23.01.2020 21:00:00 6,7 5,2 - - 0,0
23.01.2020 20:00:00 6,8 5,4 - - 0,0
23.01.2020 19:00:00 7,7 5,9 - - 0,0
23.01.2020 18:00:00 7,7 5,9 - - 0,0
23.01.2020 17:00:00 7,8 6,1 - - 0,0
23.01.2020 16:00:00 7,6 5,8 - - 0,0
23.01.2020 15:00:00 7,6 6,0 - - 0,0
23.01.2020 14:00:00 7,7 6,0 - - 0,0
23.01.2020 13:00:00 7,9 6,2 - - 0,0
23.01.2020 12:00:00 7,7 6,2 - - 0,0
23.01.2020 11:00:00 7,2 5,9 - - 0,0
23.01.2020 10:00:00 6,7 5,5 - - 0,0
23.01.2020 09:00:00 6,7 5,8 5,7 6,4 0,0
23.01.2020 08:00:00 6,8 5,7 - - 0,0
23.01.2020 07:00:00 7,1 6,2 - - 0,0
23.01.2020 06:00:00 7,2 6,4 - - 0,0
23.01.2020 05:00:00 7,2 6,5 - - 0,0
23.01.2020 04:00:00 7,1 6,4 - - 0,0
23.01.2020 03:00:00 7,2 6,6 - - 0,0
23.01.2020 02:00:00 6,7 6,3 - - 0,0
23.01.2020 01:00:00 6,6 6,1 - - 0,0
23.01.2020 00:00:00 6,5 6,1 - - 0,0
22.01.2020 23:00:00 6,4 6,0 - - 0,0
22.01.2020 22:00:00 6,1 5,7 - - 0,0
22.01.2020 21:00:00 6,7 6,2 - - 0,0
22.01.2020 20:00:00 6,9 6,6 - - 0,0
22.01.2020 19:00:00 7,0 6,8 - - 0,0
22.01.2020 18:00:00 7,1 6,7 - - 0,0
22.01.2020 17:00:00 7,8 7,1 - - 0,0
22.01.2020 16:00:00 9,3 7,4 - - 0,0
22.01.2020 15:00:00 10,7 8,3 - - 0,0
22.01.2020 14:00:00 11,3 8,4 - - 0,0
22.01.2020 13:00:00 11,2 8,4 - - 0,0
22.01.2020 12:00:00 10,4 8,3 - - 0,0
22.01.2020 11:00:00 9,1 7,7 - - 0,0
22.01.2020 10:00:00 8,6 7,5 - - 0,0
22.01.2020 09:00:00 8,3 7,4 5,0 6,5 0,0
22.01.2020 08:00:00 7,8 7,0 - - 0,0
22.01.2020 07:00:00 7,8 7,0 - - 0,0
22.01.2020 06:00:00 7,7 7,0 - - 0,0
22.01.2020 05:00:00 7,3 6,6 - - 0,0
22.01.2020 04:00:00 7,3 6,4 - - 0,0
22.01.2020 03:00:00 7,3 6,4 - - 0,0
22.01.2020 02:00:00 7,6 6,6 - - 0,0
22.01.2020 01:00:00 7,6 6,5 - - 0,0
22.01.2020 00:00:00 7,5 6,5 - - 0,0
21.01.2020 23:00:00 7,4 6,5 - - 0,0
21.01.2020 22:00:00 7,5 6,4 - - 0,0
21.01.2020 21:00:00 7,5 6,3 - - 0,0
21.01.2020 20:00:00 7,4 6,3 - - 0,0
21.01.2020 19:00:00 7,3 6,1 - - 0,0
21.01.2020 18:00:00 7,1 5,7 - - 0,0
21.01.2020 17:00:00 7,1 5,8 - - 0,0
21.01.2020 16:00:00 7,3 5,7 - - 0,0
21.01.2020 15:00:00 7,4 5,9 - - 0,0
21.01.2020 14:00:00 7,7 5,7 - - 0,0
21.01.2020 13:00:00 7,4 5,1 - - 0,0
21.01.2020 12:00:00 7,9 4,8 - - 0,0
21.01.2020 11:00:00 7,6 4,6 - - 0,0
21.01.2020 10:00:00 6,8 4,5 - - 0,0
21.01.2020 09:00:00 5,1 3,0 4,7 6,7 0,0
21.01.2020 08:00:00 5,4 3,0 - - 0,0
21.01.2020 07:00:00 5,3 2,8 - - 0,0
21.01.2020 06:00:00 5,6 2,7 - - 0,0
21.01.2020 05:00:00 6,1 2,9 - - 0,0
21.01.2020 04:00:00 5,9 2,6 - - 0,0
21.01.2020 03:00:00 5,6 2,5 - - 0,0
21.01.2020 02:00:00 5,6 2,6 - - 0,0
21.01.2020 01:00:00 5,5 2,7 - - 0,0
21.01.2020 00:00:00 5,7 2,8 - - 0,0
20.01.2020 23:00:00 5,8 3,4 - - 0,0
20.01.2020 22:00:00 5,8 3,3 - - 0,0
20.01.2020 21:00:00 6,0 3,3 - - 0,0
20.01.2020 20:00:00 5,8 3,7 - - 0,0
20.01.2020 19:00:00 5,5 3,3 - - 0,0
20.01.2020 18:00:00 5,5 3,0 - - 0,0
20.01.2020 17:00:00 5,7 2,8 - - 0,0
20.01.2020 16:00:00 6,3 3,5 - - 0,0
20.01.2020 15:00:00 6,2 3,4 - - 0,0
20.01.2020 14:00:00 6,5 3,5 - - 0,0
20.01.2020 13:00:00 7,0 3,5 - - 0,0
20.01.2020 12:00:00 6,7 3,8 - - 0,0
20.01.2020 11:00:00 6,5 3,5 - - 0,0
20.01.2020 10:00:00 5,4 3,3 - - 0,0
20.01.2020 09:00:00 4,9 3,1 4,7 6,7 0,0
20.01.2020 08:00:00 4,6 2,7 - - 0,0
20.01.2020 07:00:00 4,6 2,9 - - 0,0
20.01.2020 06:00:00 4,6 3,1 - - 0,0
20.01.2020 05:00:00 4,4 3,0 - - 0,0
20.01.2020 04:00:00 4,3 2,9 - - 0,0
20.01.2020 03:00:00 4,4 2,8 - - 0,0
20.01.2020 02:00:00 4,5 2,8 - - 0,0
20.01.2020 01:00:00 4,6 2,8 - - 0,0
20.01.2020 00:00:00 4,8 2,8 - - 0,0
19.01.2020 23:00:00 4,8 2,4 - - 0,0
19.01.2020 22:00:00 4,8 2,6 - - 0,0
19.01.2020 21:00:00 5,1 3,0 - - 0,0
19.01.2020 20:00:00 5,0 2,7 - - 0,0
19.01.2020 19:00:00 4,9 2,7 - - 0,0
19.01.2020 18:00:00 4,6 2,9 - - 0,0
19.01.2020 17:00:00 4,1 2,9 - - 0,0
19.01.2020 16:00:00 3,8 2,1 - - 0,0
19.01.2020 15:00:00 4,8 2,4 - - 0,0
19.01.2020 14:00:00 6,0 1,1 - - 0,0
19.01.2020 13:00:00 6,2 0,7 - - 0,0
19.01.2020 12:00:00 3,6 0,3 - - 0,0
19.01.2020 11:00:00 3,3 0,3 - - 0,2
19.01.2020 10:00:00 0,0 -0,5 - - 0,0
19.01.2020 09:00:00 -1,8 -2,3 5,2 6,7 0,0
19.01.2020 08:00:00 -1,5 -2,1 - - 0,0
19.01.2020 07:00:00 -1,3 -1,9 - - 0,0
19.01.2020 06:00:00 -1,5 -2,2 - - 0,0
19.01.2020 05:00:00 -1,0 -1,7 - - 0,0
19.01.2020 04:00:00 -0,7 -1,6 - - 0,0
19.01.2020 03:00:00 -0,3 -1,5 - - 0,0
19.01.2020 02:00:00 0,5 -0,9 - - 0,0
19.01.2020 01:00:00 0,6 -0,7 - - 0,0
19.01.2020 00:00:00 1,0 -0,3 - - 0,0
18.01.2020 23:00:00 3,0 0,0 - - 0,0
18.01.2020 22:00:00 2,8 0,3 - - 0,0
18.01.2020 21:00:00 3,3 1,1 - - 0,0
18.01.2020 20:00:00 3,6 1,3 - - 0,0
18.01.2020 19:00:00 3,9 1,3 - - 0,0
18.01.2020 18:00:00 4,3 1,5 - - 0,0
18.01.2020 17:00:00 4,3 1,5 - - 0,0
18.01.2020 16:00:00 4,7 1,2 - - 0,0
18.01.2020 15:00:00 5,6 0,9 - - 0,0
18.01.2020 14:00:00 6,2 1,2 - - 0,0
18.01.2020 13:00:00 6,1 1,5 - - 0,0
18.01.2020 12:00:00 5,8 1,7 - - 0,0
18.01.2020 11:00:00 4,9 1,3 - - 0,0
18.01.2020 10:00:00 3,9 1,2 - - 0,0
18.01.2020 09:00:00 2,7 0,4 5,7 6,7 0,0
18.01.2020 08:00:00 3,0 1,0 - - 0,0
18.01.2020 07:00:00 3,1 0,8 - - 0,0
18.01.2020 06:00:00 3,2 0,7 - - 0,0
18.01.2020 05:00:00 3,0 0,9 - - 0,0
18.01.2020 04:00:00 2,8 1,0 - - 0,0
18.01.2020 03:00:00 2,7 1,1 - - 0,6
18.01.2020 02:00:00 2,9 1,2 - - 0,6
18.01.2020 01:00:00 3,4 1,6 - - 0,6

tt = temperature
td = dewpoint
tt -20cm = temperature -20cm
tt -100cm = temperature -100cm
rr = precipitation

Next stations